Flag for Germany Weather past 2 weeks in Crailsheim, Baden-Württemberg, Germany

Now
68 °F

Passing clouds.


Feels Like: 68 °F
Forecast: 59 / 89 °F
Wind: 8 mph from Northwest

Location: Niederstetten

Current Time: Aug 28, 2015 at 3:23:34 AM

Latest Report: Aug 28, 2015 at 2:20 AM


Visibility: N/A

Pressure: 29.95 "Hg

Humidity: 73%

Dew point: 59 °F

Location of CrailsheimLocation

Historic Weather in Crailsheim — Graph

°F

Crailsheim temperature yesterday

Maximum temperature yesterday: 86 °F (at 4:20 PM)
Minimum temperature yesterday: 63 °F (at 2:20 AM)
Average temperature yesterday: 74 °F

Past Weeks' High & Low Weather Summary

 TemperatureHumidityPressure
High91 °F (Aug 13, 5:00 PM)100% (Aug 15, 5:20 AM)30.30 "Hg (Aug 15, 5:20 AM)
Low50 °F (Aug 19, 2:20 AM)24% (Aug 13, 6:20 PM)29.74 "Hg (Aug 24, 8:20 AM)
Average64 °F71%29.99 "Hg
* Reported Aug 13 1:20 AM — Aug 28 1:20 AM, Crailsheim, Weather by CustomWeather, © 2015

Note: Actual official high and low records may vary slightly from our data, if they occured in-between our weather recording intervals... More about our weather records

Advertising

Crailsheim weather history for previous 24 hours

 ConditionsComfort  
Time TempWeatherWind HumidityBarometerVisibility
1:20 AM
Fri, Aug 28
70 °FPassing clouds.8 mph60%29.92 "HgN/A
12:20 AM73 °FPassing clouds.3 mph47%29.92 "HgN/A
11:20 PM
Thu, Aug 27
75 °FPassing clouds.6 mph44%29.89 "HgN/A
10:20 PM75 °FPassing clouds.6 mph41%29.89 "HgN/A
9:20 PM75 °FPassing clouds.7 mph41%29.89 "HgN/A
8:20 PM77 °FPartly sunny.7 mph39%29.86 "HgN/A
7:20 PM82 °FPartly sunny.8 mph32%29.89 "HgN/A
6:20 PM84 °FPartly sunny.14 mph31%29.89 "HgN/A
5:20 PM86 °FPartly sunny.16 mph29%29.89 "HgN/A
5:00 PM86 °FPartly sunny.14 mph29%29.89 "HgN/A
4:20 PM86 °FPartly sunny.14 mph31%29.89 "HgN/A
3:20 PM84 °FPartly sunny.15 mph31%29.92 "HgN/A
2:20 PM82 °FPartly sunny.13 mph35%29.92 "HgN/A
1:20 PM81 °FPartly sunny.10 mph39%29.95 "HgN/A
12:20 PM77 °FPartly sunny.7 mph44%29.95 "HgN/A
11:20 AM75 °FPartly sunny.7 mph47%29.98 "HgN/A
10:20 AM73 °FPartly sunny.8 mph44%29.98 "HgN/A
9:20 AM70 °FPartly sunny.6 mph53%29.98 "HgN/A
8:20 AM66 °FPartly sunny.5 mph60%29.98 "HgN/A
7:20 AM64 °FPassing clouds.7 mph56%29.98 "HgN/A
6:20 AM63 °FPassing clouds.6 mph59%29.95 "HgN/A
5:20 AM63 °FPassing clouds.9 mph59%29.95 "HgN/A
4:20 AM63 °FPassing clouds.10 mph59%29.95 "HgN/A
3:20 AM63 °FPassing clouds.10 mph59%29.95 "HgN/A
Weather by CustomWeather, © 2015

See weather overviewHow to use our weather pages